This is the latest recevied weather packets stored in our database for station/object VO2AGO. If no packets are shown the sender has not sent any weather packets the latest 10 day(s).
| Time | Temp. | Humidity | Pressure | Rain* | Wind** | Luminosity | Snow |
|---|---|---|---|---|---|---|---|
| 1777487752 | 10.56° C | 63% | 101.1 hPa | 0 mm | 0 m/s | 916 W/m² | - |
| 1777487302 | 10° C | 65% | 101.1 hPa | 0 mm | 0 m/s | 959 W/m² | - |
| 1777486852 | 10° C | 65% | 101.1 hPa | 0 mm | 0 m/s | 1083 W/m² | - |
| 1777486401 | 10° C | 65% | 101.1 hPa | 0 mm | 0 m/s | 1140 W/m² | - |
| 1777485952 | 10° C | 65% | 101.1 hPa | 0 mm | 0 m/s | 1203 W/m² | - |
| 1777485502 | 10° C | 66% | 101.1 hPa | 0 mm | 0 m/s | 1204 W/m² | - |
| 1777485052 | 9.44° C | 68% | 101.1 hPa | 0 mm | 0 m/s | 1034 W/m² | - |
| 1777484602 | 9.44° C | 68% | 101.1 hPa | 0 mm | 0 m/s | 1210 W/m² | - |
| 1777484151 | 10° C | 65% | 101.1 hPa | 0 mm | 0 m/s | 1530 W/m² | - |
| 1777483701 | 10.56° C | 65% | 101.1 hPa | 0 mm | 0 m/s | 1247 W/m² | - |
| 1777483252 | 10° C | 67% | 101.2 hPa | 0 mm | 0 m/s | 974 W/m² | - |
| 1777482802 | 10° C | 67% | 101.1 hPa | 0 mm | 0 m/s | 990 W/m² | - |
| 1777482351 | 10° C | 67% | 101.1 hPa | 0 mm | 0 m/s | 1114 W/m² | - |
| 1777481901 | 10° C | 65% | 101.1 hPa | 0 mm | 0 m/s | 962 W/m² | - |
| 1777481450 | 10.56° C | 65% | 101.2 hPa | 0 mm | 0 m/s | 960 W/m² | - |
| 1777481002 | 10° C | 68% | 101.1 hPa | 0 mm | 0 m/s | 1023 W/m² | - |
| 1777480552 | 9.44° C | 71% | 101.2 hPa | 0 mm | 0 m/s | 976 W/m² | - |
| 1777480101 | 9.44° C | 71% | 101.1 hPa | 0 mm | 0 m/s | 949 W/m² | - |
| 1777479651 | 8.89° C | 73% | 101.1 hPa | 0 mm | 0 m/s | 1009 W/m² | - |
| 1777479202 | 8.89° C | 75% | 101.2 hPa | 0 mm | 0 m/s | 1040 W/m² | - |
| 1777478752 | 9.44° C | 72% | 101.2 hPa | 0 mm | 0 m/s | 796 W/m² | - |
| 1777478301 | 9.44° C | 75% | 101.1 hPa | 0 mm | 0 m/s | 844 W/m² | - |
| 1777477852 | 9.44° C | 71% | 101.1 hPa | 0 mm | 0 m/s | 956 W/m² | - |
| 1777477402 | 8.89° C | 77% | 101.2 hPa | 0 mm | 0 m/s | 839 W/m² | - |
| 1777476952 | 10° C | 66% | 101.2 hPa | 0 mm | 0 m/s | 928 W/m² | - |
* Rain latest hour (hover to see other rain measurements)
** Current wind speed in m/s (hover to see current wind gust speed)